| Date | Time | Temp. (oF) | Dew Point (oF) | Rel. Hum. (%) | Press. (in.) | Wind Dir. | Wind Speed (mph) | Hourly Rainfall (in.) |
|
|---|---|---|---|---|---|---|---|---|---|
| 1 | 04/27 | 00:00 | 53 | 53 | 100 | 29.25 | E | 2 | 0.00 |
| 2 | 04/26 | 23:00 | 53 | 53 | 100 | 29.25 | ENE | 2 | 0.00 |
| 3 | 04/26 | 22:00 | 53 | 53 | 100 | 29.26 | ENE | 2 | 0.00 |
| 4 | 04/26 | 21:00 | 54 | 53 | 99 | 29.26 | E | 1 | 0.02 |
| 5 | 04/26 | 20:00 | 54 | 53 | 98 | 29.25 | SE | 2 | 0.00 |
| 6 | 04/26 | 19:00 | 55 | 54 | 98 | 29.24 | E | 0 | 0.00 |
| 7 | 04/26 | 18:00 | 56 | 55 | 99 | 29.24 | S | 2 | 0.00 |
| 8 | 04/26 | 17:00 | 55 | 54 | 98 | 29.24 | ESE | 0 | 0.05 |
| 9 | 04/26 | 16:00 | 55 | 54 | 97 | 29.24 | S | 2 | 0.00 |
| 10 | 04/26 | 15:00 | 55 | 54 | 98 | 29.24 | ENE | 2 | 0.01 |
| 11 | 04/26 | 14:00 | 54 | 53 | 99 | 29.26 | ESE | 3 | 0.02 |
| 12 | 04/26 | 13:00 | 53 | 52 | 98 | 29.29 | SE | 0 | 0.01 |
| 13 | 04/26 | 12:00 | 52 | 51 | 99 | 29.30 | SE | 0 | 0.01 |
| 14 | 04/26 | 11:00 | 52 | 51 | 100 | 29.32 | SE | 4 | 0.02 |
| 15 | 04/26 | 10:00 | 51 | 50 | 100 | 29.32 | SE | 4 | 0.03 |
| 16 | 04/26 | 09:00 | 50 | 50 | 100 | 29.33 | E | 4 | 0.02 |
| 17 | 04/26 | 08:00 | 49 | 49 | 100 | 29.33 | ENE | 4 | 0.02 |
| 18 | 04/26 | 07:00 | 49 | 49 | 100 | 29.34 | E | 4 | 0.03 |
| 19 | 04/26 | 06:00 | 49 | 49 | 100 | 29.36 | NNW | 1 | 0.02 |
| 20 | 04/26 | 05:00 | 49 | 49 | 100 | 29.36 | ESE | 0 | 0.02 |
| 21 | 04/26 | 04:00 | 49 | 49 | 100 | 29.36 | NE | 8 | 0.02 |
| 22 | 04/26 | 03:00 | 49 | 49 | 100 | 29.37 | NE | 3 | 0.01 |
| 23 | 04/26 | 02:00 | 49 | 49 | 100 | 29.37 | NE | 3 | 0.03 |
| 24 | 04/26 | 01:00 | 50 | 50 | 100 | 29.41 | SW | 0 | 0.03 |